Location: Newark
(41.0400°S, 62.7845°W)
Time: 15:50:09
(UTC+00:00)

Tiangong - Visible Passes

Search period start: 23 October 2021 00:00
Search period end: 02 November 2021 00:00
Orbit: 381 x 390 km, 41.5° (Epoch: 23 October)

Date Brightness Start Highest point End Pass type
(mag) Time Alt. Az. Time Alt. Az. Time Alt. Az.
23 Oct 3.2 07:39:39 16° NNE 07:40:27 17° NNE 07:42:38 10° ENE visible
24 Oct 1.8 08:15:16 15° NW 08:17:40 43° NNE 08:20:44 10° E visible
25 Oct 2.5 07:18:37 27° NNE 07:18:37 27° NNE 07:21:13 10° E visible
26 Oct 1.2 07:54:07 26° WNW 07:55:43 65° NNE 07:58:54 10° E visible
27 Oct 2.5 06:57:22 32° ENE 06:57:22 32° ENE 06:59:27 10° E visible
27 Oct 1.1 08:29:57 10° W 08:33:10 82° S 08:36:22 10° E visible
28 Oct 1.0 07:32:48 43° WNW 07:33:45 86° NNE 07:36:57 10° E visible
29 Oct 3.2 06:36:01 25° E 06:36:01 25° E 06:37:31 10° E visible
29 Oct 1.1 08:08:13 12° W 08:11:11 81° S 08:14:25 10° E visible
30 Oct 1.0 07:11:27 71° WSW 07:11:43 82° S 07:14:57 10° E visible
31 Oct 3.9 06:14:42 16° E 06:14:42 16° E 06:15:29 10° E visible
31 Oct 1.0 07:46:55 18° W 07:49:10 89° SE 07:52:22 10° E visible
01 Nov 1.7 06:50:15 56° ESE 06:50:15 56° ESE 06:52:53 10° E visible
01 Nov 1.4 08:23:21 10° W 08:26:29 50° NNW 08:29:35 10° ENE visible
